Flight Track Log - Related Links

Times and Time Zones

All times are in EDT time to prevent confusion due to time zone crossing. See the UAL4305 flight status page for this flight to view local times or setup timezone preferences in your user account.

Time Position Orientation Groundspeed Altitude Reporting Facility
EDT Latitude Longitude Course Direction KTS MPH feet Rate Location/Type
Mon 08:06:13 AM 30.5686 -96.3564 131° Southeast 203 234 1,000  Level Houston Center
Mon 08:07:02 AM 30.5450 -96.3250 131° Southeast 194 223 3,000 2,202 Climbing Houston Center
Mon 08:08:02 AM 30.5203 -96.2550 112° Southeast 267 307 5,000 1,951 Climbing Houston Center
Mon 08:09:05 AM 30.4758 -96.1722 122° Southeast 274 315 7,000 1,016 Climbing Houston Center
Mon 08:10:06 AM 30.4347 -96.0942 121° Southeast 280 322 7,100 49 Climbing Houston Center
Mon 08:11:07 AM 30.3981 -96.0308 124° Southeast 276 318 7,100  Level Houston Center
Mon 08:12:09 AM 30.3572 -95.9564 122° Southeast 273 314 7,100  Level Houston Center
Mon 08:13:10 AM 30.3069 -95.8642 122° Southeast 282 325 7,100  Level Houston Center
Mon 08:14:11 AM 30.2644 -95.7878 123° Southeast 284 327 7,100  Level Houston Center
Mon 08:15:13 AM 30.2233 -95.7125 122° Southeast 278 320 7,100  Level Houston Center
Mon 08:16:14 AM 30.1808 -95.6358 123° Southeast 283 326 7,100  Level Houston Center
Mon 08:17:15 AM 30.1403 -95.5608 122° Southeast 276 318 7,100 -98 Level Houston Center
Mon 08:18:17 AM 30.1061 -95.4858 118° Southeast 270 311 6,900 -488 Descending Houston Center
Mon 08:19:18 AM 30.1064 -95.3975 90° East 273 314 6,100 -393 Descending Houston Center
Mon 08:20:19 AM 30.1064 -95.2947 90° East 275 316 6,100 -537 Level Houston Center
Mon 08:21:21 AM 30.1067 -95.2211 90° East 275 316 5,000 -1,623 Descending Houston Center
Mon 08:22:21 AM 30.0689 -95.1397 118° Southeast 239 275 2,800 -1,488 Descending Houston Center
Mon 08:23:22 AM 30.0178 -95.1558 195° South 172 198 2,000 -393 Descending Houston Center
Mon 08:24:23 AM 30.0100 -95.2075 260° West 167 192 2,000 -240 Level Houston Center
Mon 08:25:27 AM 30.0083 -95.2525 268° West 156 180 1,500 -656 Descending Houston Center
Mon 08:26:31 AM 30.0061 -95.3019 267° West 140 161 600 -585 Descending Houston Center
Mon 08:27:30 AM 30.0064 -95.3425 270° West 137 158 300 -305 Descending Houston Center

Login

Don't have an account? Register now (free) for customized features, flight alerts, and more!